YUNHAI 1-02 (44547 NORAD) Tracking and Keplerian Element Data

This shows tracking and keplerian element data for the satellite.

Feedback or suggestion? Click here.




ElementValue
Catalog44547
NameYUNHAI 1-02
Epoch Orbit430
Epoch Day298.11083482
Epoch Year2019
RAAN320.9324
Inclination98.5902
Eccentricity0.0001969
Argument of Perigee167.1478
Mean Anonmoly192.9771
Mean Motion14.32611209
Decay Rate1.48E-06
L11 44547U 19063A 19298.11083482 .00000148 00000-0 70870-4 0 9998
L22 44547 98.5902 320.9324 0001969 167.1478 192.9771 14.32611209 4303

Live tracking and technical data element details for YUNHAI 1-02 (NORAD 44547). YUNHAI 1-02 can be tracked NOW for your location showing map with azimuth and elevation plus other details from your city location.

Track the satellite on the map from your city or location and see movement details for azimuth, elevation, latitude, longitude, range, height, and movement on the map or in text.







IsCatalogInMostPopularTable: catalog: 44547, numindb: 16
Update: records affected: 1



GetName: 44547 YUNHAI 1-02

Hit Count: updated at: Thu, 05 Dec 2019 16:50:52 GMT